Погода в Лагани

Погода в Лагани : погода сейчас, прогноз погоды и архив. Всё, что Вы хотите узнать о погоде в Лагани!

Поиск расширенной информации на нашем сайте:

Другие новости

Новости СМИ2

Главная страница сайта

Новости сайта

03.07.2017

Напоминаем, что на нашем специализированном сайте Метеоцентр.Азия вы можете получить высокодетализированные автоматические прогнозы погоды по пунктам России, СНГ и мира в авиационном формате (включающие направление и скорость ветра, видимость, явления погоды, количество и форму облачности, нижнюю и верхнюю границу облачности).


Погода в Лагани - сегодня

Время (UTC), дата Ветер
(°,м/с) 
Видим.   Явления Облачность Т
(°С)
Тd
(°С)
f(%) Тe
(°С)
Pmin
(гПа)
dP
(гПа)
Po
(мм)
O2
(г/м3)
Тmin Tmax R s Состояние
почвы
15 17.10.17 270 (З) 4{14}  20000 м    3/1 600 м верхняя 
[Sc diur, vesp|Ci sp]
+7.3 +2.3 71 +6  1016.4  0.9  764  300    +10.4  0.0     
18 17.10.17 260 (З) 20000 м    10/0 средняя 
[Ac As]
+7 +2.9 75 +7  1017.1  0.8  765  300           
21 17.10.17 240 (ЮЗ) 20000 м    10/0 средняя 
[Ac As]
+8.1 +4.6 79 +7  1017.1  -0.1  765  299           
00 18.10.17 250 (З) 10 км    10/0 средняя 
[Ac As]
+9.1 +6.5 84 +9  1017.8  0.7  765  297           
03 18.10.17 280 (З) 10 км    10/5 600 м кучево-дожд., средняя 
[Cb cap|Ac As]
+9.8 +8.1 89 +9  1020.1  2.3  767  297  +6.7        влажная 
06 18.10.17 290 (З) 10 км    10/4 600 м кучево-дожд., средняя 
[Cb cap|Ac As]
+10.5 +8.1 85 +9  1022.7  2.6  769  297           
09 18.10.17 300 (СЗ) 20000 м    10/8 600 м кучево-дожд., средняя 
[Cb cap|Ac As]
+12.8 +7.5 70 +12  1023.2  0.5  769  295           
12 18.10.17 280 (З) 20000 м    3/0 средняя 
[Ac trans]
+14.3 +4.9 53 +14  1023.1  -0.1  769  294           
15 18.10.17 290 (З) 20000 м    ясно 
+9 +4.6 74 +10  1024  0.9  770  300    +14.6       
18 18.10.17 220 (ЮЗ) 10 км    ясно 
+5.9 +3.9 87 +6  1024.3  0.5  770  303           
21 18.10.17 210 (ЮЗ) 10 км    ясно 
+4.3 +2.8 90 +5  1024  -0.3  770  305           
00 19.10.17 190 (Ю) 4000 м  дымка  ясно 
+3.1 +2.3 94 +3  1023.6  -0.4  770  306           
03 19.10.17 190 (Ю) 4000 м  дымка  ясно 
+5.4 +4.6 95 +4  1023.4  -0.2  770  303  +2.6        влажная 
06 19.10.17 210 (ЮЗ) 4000 м  дымка  5/0 200 м 
[St]
+9.9 +8.5 91 +9  1023.8  0.3  770  298           
09 19.10.17 210 (ЮЗ) 20000 м    8/3 600 м средняя, верхняя 
[As trans|Cs]
+16.1 +9.8 66 +16  1022.7  -1.2  769  291           
12 19.10.17 210 (ЮЗ) 20000 м    10/6 600 м кучево-дожд., средняя 
[Cb cap|Ac As]
+16.9 +9.9 63 +18  1021.3  -1.4  768  290           
15 19.10.17 170 (Ю) 10 км    10/4 600 м кучево-дожд., средняя 
[Cb cap|Ac As]
+12.2 +10.1 87 +14  1021  -0.2  768  294    +17.3       
18 19.10.17 180 (Ю) 4000 м  дымка  9/6 300 м средняя 
[St|Ac trans]
+10.7 +9.6 93 +10  1020.6  -0.4  767  296           
21 19.10.17 210 (ЮЗ) 4000 м  дымка  9/8 200 м средняя 
[St|Ac trans]
+11.1 +10 93 +12  1019.6  -1  767  295           
00 20.10.17 210 (ЮЗ) 4000 м  дымка  6/6 300 м 
[St]
+10.9 +9.5 91 +11  1018.5  -1.1  766  295           
03 20.10.17 240 (ЮЗ) 10 км    10/8 600 м средняя 
[Sc|Ac As]
+11.4 +9.7 89 +12  1018.4  0.1  766  294  +9.6        влажная 
06 20.10.17 260 (З) 20000 м    4/0 средняя, верхняя 
[Ac trans|Ci fib]
+14.9 +11.4 80 +18  1018.8  0.3  766  291           
09 20.10.17 300 (СЗ) 20000 м    6/6 600 м 
[Sc diur, vesp]
+18.6 +10.4 59 +20  1017.8  -1  765  287           
12 20.10.17 270 (З) 20000 м    9/5 600 м кучево-дожд., средняя 
[Cb cap|Ac und]
+18 +9.5 58 +18  1017.4  -0.4  765  288           
15 20.10.17 300 (СЗ) 20000 м    8/8 600 м 
[Sc]
+15.9 +9.6 66 +17  1017.8  0.5  765  290    +19.1       
Время (UTC), дата Ветер
(°,м/с) 
Видим.   Явления Облачность Т
(°С)
Тd
(°С)
f(%) Тe
(°С)
Pmin
(гПа)
dP
(гПа)
Po
(мм)
O2
(г/м3)
Тmin Tmax R s Состояние
почвы

Для получения пояснительной информации подведите курсор к названию столбца.

ПОГОДА в Лагани - архив

Всё, что Вы хотите узнать о погоде в Лагани - удобно и подробно!

Выберите нужную дату (начиная с 1 января 2015* года) и нажмите кнопку "Найти".
Будут отображены архивные сводки погоды по пункту Лагань, начиная с указанной даты.


Отображать данные в формате CSV (для использования в таблицах Excel)


Внимание! Наш архив погоды предназначен исключительно для личного некоммерческого использования в познавательных целях. Если Вам необходимы официальные справки о состоянии погоды (для производственных, юридических, коммерческих и т.п. целей), обращайтесь в органы Росгидромета.

*Примечание: данная дата относится к архиву по метеостанциям СССР (Россия, СНГ, Балтия).
Архив по метеостанциям Зарубежной Европы и Азии (кроме Китая) хранится 10 дней, по другим регионам земного шара (Китай, Африка, Америка, Австралия, Океания) - 1 день.

Лагань - район местоположения метеостанции


Название, широта, долгота, высота метеостанции:
Лагань 45.4°ш. 47.3°д. -24 м над ур. моря [Российская Федерация]

Дополнительная информация

В oтличие oт бoльшинства пoгoдных сайтoв мы публикуем пoдрoбную метеoинфoрмацию в детальнoм прoфессиoнальнoм фoрмате.

Характеристики температуры и влажнoсти вoздуха измеряются на высoте 2 м в тени вдали oт зданий и деревьев.
Скoрoсть ветра измеряется на высoте 10 м (на урoвне рoста челoвека скoрoсть ветра ниже в 1.5-2 раза). Если метеoстанция нахoдится в гoрoде или в лесу, тo скoрoсть ветра занижена на 2-4 м/с пo сравнению с oткрытым местoм. Скoрoсть ветра над акватoриями крупных рек и oзёр, а также на вершинах хoлмoв на 2-5 м/с выше, чем в oбычных услoвиях.
Атмoсфернoе давление в разных тoчках местнoсти мoжет значительнo oтличаться oт давления на метеoстанции, в зависимoсти oт услoвий рельефа (при пoдъёме на 10 м давление пoнижается примернo на 1 мм рт.ст.).